Starlink 3675

operational
NORAD ID: 51963 Int'l Des: 2022-025 Owner: SPXS Country: US Constellation: starlink
LEOCIRCULARSTARLINK_TYPE

Über Starlink 3675

Beschreibung wird geladen...

Live-Position

3D-Globus wird geladen...

Nächste Überflüge

Höhenverlauf

Altitude vs Time

uPlot chart will show altitude changes over time

Zweizeiliger Elementsatz

1 51963U 22025H 25351.83790343 .00000030 00000-0 20876-4 0 9998
2 51963 53.0551 29.0151 0001254 85.6432 274.4700 15.06395927208712
Epoch: 17. Dez. 2025 • Age: 14 hours

Aktueller Status

Höhe 566.2 km
Geschwindigkeit 7.58 km/s
Subsatellitenpunkt -52.11°S, 73.85°E
Startdatum 9. März 2022
Alter 3.7 years
Typ internet

Technische Details

Klassifizierung Payload
Masse 297.00 kg
Trockenmasse 275.00 kg
Gesamtmasse 297.00 kg
Länge 0.20 m
Durchmesser 2.80 m
Spannweite 9.00 m
Form Box + pan
Hersteller SPXS
Bus-Typ Starlink
Phasenstatus In Orbit
Besitzer/Staat SPXS/US

Große Konstellationen

Loading constellations...